Year,Month,Day,Hour,Minute,Value (Times are PST for temperature in C)
2012,04,07,00,00,3.60
2012,04,07,00,01,3.60
2012,04,07,00,02,3.70
2012,04,07,00,03,3.70
2012,04,07,00,04,3.70
2012,04,07,00,05,3.70
2012,04,07,00,06,3.70
2012,04,07,00,07,3.70
2012,04,07,00,08,3.70
2012,04,07,00,09,3.70
2012,04,07,00,10,3.80
2012,04,07,00,11,3.80
2012,04,07,00,12,3.80
2012,04,07,00,13,3.80
2012,04,07,00,14,3.80
2012,04,07,00,15,3.80
2012,04,07,00,16,3.80
2012,04,07,00,17,3.80
2012,04,07,00,18,3.80
2012,04,07,00,19,3.80
2012,04,07,00,20,3.80
2012,04,07,00,21,3.80
2012,04,07,00,22,3.80
2012,04,07,00,23,3.70
2012,04,07,00,24,3.70
2012,04,07,00,25,3.70
2012,04,07,00,26,3.70
2012,04,07,00,27,3.70
2012,04,07,00,28,3.60
2012,04,07,00,29,3.60
2012,04,07,00,30,3.60
2012,04,07,00,31,3.50
2012,04,07,00,32,3.50
2012,04,07,00,33,3.40
2012,04,07,00,34,3.40
2012,04,07,00,35,3.40
2012,04,07,00,36,3.40
2012,04,07,00,37,3.30
2012,04,07,00,38,3.40
2012,04,07,00,39,3.40
2012,04,07,00,40,3.40
2012,04,07,00,41,3.40
2012,04,07,00,42,3.40
2012,04,07,00,43,3.40
2012,04,07,00,44,3.40
2012,04,07,00,45,3.40
2012,04,07,00,46,3.40
2012,04,07,00,47,3.40
2012,04,07,00,48,3.50
2012,04,07,00,49,3.50
2012,04,07,00,50,3.50
2012,04,07,00,51,3.50
2012,04,07,00,52,3.60
2012,04,07,00,53,3.60
2012,04,07,00,54,3.60
2012,04,07,00,55,3.60
2012,04,07,00,56,3.60
2012,04,07,00,57,3.60
2012,04,07,00,58,3.60
2012,04,07,00,59,3.70
2012,04,07,01,00,3.70
2012,04,07,01,01,3.70
2012,04,07,01,02,3.70
2012,04,07,01,03,3.60
2012,04,07,01,04,3.60
2012,04,07,01,05,3.60
2012,04,07,01,06,3.60
2012,04,07,01,07,3.60
2012,04,07,01,08,3.60
2012,04,07,01,09,3.60
2012,04,07,01,10,3.60
2012,04,07,01,11,3.60
2012,04,07,01,12,3.60
2012,04,07,01,13,3.60
2012,04,07,01,14,3.60
2012,04,07,01,15,3.60
2012,04,07,01,16,3.60
2012,04,07,01,17,3.60
2012,04,07,01,18,3.50
2012,04,07,01,19,3.50
2012,04,07,01,20,3.50
2012,04,07,01,21,3.50
2012,04,07,01,22,3.40
2012,04,07,01,23,3.40
2012,04,07,01,24,3.40
2012,04,07,01,25,3.40
2012,04,07,01,26,3.40
2012,04,07,01,27,3.40
2012,04,07,01,28,3.40
2012,04,07,01,29,3.40
2012,04,07,01,30,3.40
2012,04,07,01,31,3.30
2012,04,07,01,32,3.30
2012,04,07,01,33,3.30
2012,04,07,01,34,3.30
2012,04,07,01,35,3.30
2012,04,07,01,36,3.30
2012,04,07,01,37,3.20
2012,04,07,01,38,3.20
2012,04,07,01,39,3.20
2012,04,07,01,40,3.20
2012,04,07,01,41,3.20
2012,04,07,01,42,3.20
2012,04,07,01,43,3.20
2012,04,07,01,44,3.20
2012,04,07,01,45,3.20
2012,04,07,01,46,3.20
2012,04,07,01,47,3.10
2012,04,07,01,48,3.10
2012,04,07,01,49,3.10
2012,04,07,01,50,3.10
2012,04,07,01,51,3.10
2012,04,07,01,52,3.10
2012,04,07,01,53,3.10
2012,04,07,01,54,3.10
2012,04,07,01,55,3.10
2012,04,07,01,56,3.10
2012,04,07,01,57,3.10
2012,04,07,01,58,3.00
2012,04,07,01,59,3.00
2012,04,07,02,00,3.00
2012,04,07,02,01,3.00
2012,04,07,02,02,3.00
2012,04,07,02,03,3.00
2012,04,07,02,04,3.00
2012,04,07,02,05,3.00
2012,04,07,02,06,3.00
2012,04,07,02,07,3.00
2012,04,07,02,08,2.90
2012,04,07,02,09,2.90
2012,04,07,02,10,2.90
2012,04,07,02,11,2.90
2012,04,07,02,12,2.90
2012,04,07,02,13,2.90
2012,04,07,02,14,2.90
2012,04,07,02,15,2.90
2012,04,07,02,16,2.90
2012,04,07,02,17,2.90
2012,04,07,02,18,2.90
2012,04,07,02,19,2.90
2012,04,07,02,20,2.90
2012,04,07,02,21,2.90
2012,04,07,02,22,2.90
2012,04,07,02,23,2.90
2012,04,07,02,24,2.90
2012,04,07,02,25,2.90
2012,04,07,02,26,2.90
2012,04,07,02,27,2.90
2012,04,07,02,28,2.90
2012,04,07,02,29,2.90
2012,04,07,02,30,2.90
2012,04,07,02,31,2.90
2012,04,07,02,32,3.00
2012,04,07,02,33,3.00
2012,04,07,02,34,3.00
2012,04,07,02,35,3.00
2012,04,07,02,36,3.00
2012,04,07,02,37,3.00
2012,04,07,02,38,3.00
2012,04,07,02,39,3.00
2012,04,07,02,40,3.00
2012,04,07,02,41,3.00
2012,04,07,02,42,3.00
2012,04,07,02,43,3.00
2012,04,07,02,44,3.00
2012,04,07,02,45,3.00
2012,04,07,02,46,3.00
2012,04,07,02,47,3.00
2012,04,07,02,48,3.00
2012,04,07,02,49,3.00
2012,04,07,02,50,3.00
2012,04,07,02,51,2.90
2012,04,07,02,52,2.90
2012,04,07,02,53,2.90
2012,04,07,02,54,2.90
2012,04,07,02,55,2.90
2012,04,07,02,56,2.90
2012,04,07,02,57,2.90
2012,04,07,02,58,2.90
2012,04,07,02,59,2.90
2012,04,07,03,00,2.90
2012,04,07,03,01,2.90
2012,04,07,03,02,2.90
2012,04,07,03,03,2.90
2012,04,07,03,04,2.90
2012,04,07,03,05,2.80
2012,04,07,03,06,2.80
2012,04,07,03,07,2.80
2012,04,07,03,08,2.80
2012,04,07,03,09,2.80
2012,04,07,03,10,2.80
2012,04,07,03,11,2.80
2012,04,07,03,12,2.80
2012,04,07,03,13,2.80
2012,04,07,03,14,2.80
2012,04,07,03,15,2.80
2012,04,07,03,16,2.80
2012,04,07,03,17,2.80
2012,04,07,03,18,2.80
2012,04,07,03,19,2.80
2012,04,07,03,20,2.80
2012,04,07,03,21,2.80
2012,04,07,03,22,2.80
2012,04,07,03,23,2.80
2012,04,07,03,24,2.80
2012,04,07,03,25,2.80
2012,04,07,03,26,2.70
2012,04,07,03,27,2.70
2012,04,07,03,28,2.70
2012,04,07,03,29,2.70
2012,04,07,03,30,2.70
2012,04,07,03,31,2.70
2012,04,07,03,32,2.70
2012,04,07,03,33,2.70
2012,04,07,03,34,2.70
2012,04,07,03,35,2.70
2012,04,07,03,36,2.70
2012,04,07,03,37,2.70
2012,04,07,03,38,2.70
2012,04,07,03,39,2.70
2012,04,07,03,40,2.70
2012,04,07,03,41,2.60
2012,04,07,03,42,2.60
2012,04,07,03,43,2.60
2012,04,07,03,44,2.60
2012,04,07,03,45,2.60
2012,04,07,03,46,2.60
2012,04,07,03,47,2.60
2012,04,07,03,48,2.60
2012,04,07,03,49,2.60
2012,04,07,03,50,2.50
2012,04,07,03,51,2.50
2012,04,07,03,52,2.50
2012,04,07,03,53,2.50
2012,04,07,03,54,2.50
2012,04,07,03,55,2.40
2012,04,07,03,56,2.40
2012,04,07,03,57,2.40
2012,04,07,03,58,2.40
2012,04,07,03,59,2.40
2012,04,07,04,00,2.30
2012,04,07,04,01,2.30
2012,04,07,04,02,2.30
2012,04,07,04,03,2.30
2012,04,07,04,04,2.30
2012,04,07,04,05,2.30
2012,04,07,04,06,2.30
2012,04,07,04,07,2.30
2012,04,07,04,08,2.30
2012,04,07,04,09,2.30
2012,04,07,04,10,2.30
2012,04,07,04,11,2.30
2012,04,07,04,12,2.30
2012,04,07,04,13,2.30
2012,04,07,04,14,2.30
2012,04,07,04,15,2.30
2012,04,07,04,16,2.30
2012,04,07,04,17,2.30
2012,04,07,04,18,2.30
2012,04,07,04,19,2.30
2012,04,07,04,20,2.30
2012,04,07,04,21,2.30
2012,04,07,04,22,2.30
2012,04,07,04,23,2.30
2012,04,07,04,24,2.30
2012,04,07,04,25,2.30
2012,04,07,04,26,2.30
2012,04,07,04,27,2.30
2012,04,07,04,28,2.30
2012,04,07,04,29,2.30
2012,04,07,04,30,2.30
2012,04,07,04,31,2.30
2012,04,07,04,32,2.30
2012,04,07,04,33,2.30
2012,04,07,04,34,2.30
2012,04,07,04,35,2.40
2012,04,07,04,36,2.40
2012,04,07,04,37,2.40
2012,04,07,04,38,2.40
2012,04,07,04,39,2.40
2012,04,07,04,40,2.40
2012,04,07,04,41,2.50
2012,04,07,04,42,2.50
2012,04,07,04,43,2.50
2012,04,07,04,44,2.50
2012,04,07,04,45,2.50
2012,04,07,04,46,2.50
2012,04,07,04,47,2.40
2012,04,07,04,48,2.40
2012,04,07,04,49,2.40
2012,04,07,04,50,2.40
2012,04,07,04,51,2.40
2012,04,07,04,52,2.30
2012,04,07,04,53,2.20
2012,04,07,04,54,2.20
2012,04,07,04,55,2.20
2012,04,07,04,56,2.10
2012,04,07,04,57,2.10
2012,04,07,04,58,2.10
2012,04,07,04,59,2.10
2012,04,07,05,00,2.10
2012,04,07,05,01,2.10
2012,04,07,05,02,2.10
2012,04,07,05,03,2.10
2012,04,07,05,04,2.10
2012,04,07,05,05,2.10
2012,04,07,05,06,2.10
2012,04,07,05,07,2.10
2012,04,07,05,08,2.10
2012,04,07,05,09,2.10
2012,04,07,05,10,2.00
2012,04,07,05,11,2.00
2012,04,07,05,12,1.90
2012,04,07,05,13,1.90
2012,04,07,05,14,1.90
2012,04,07,05,15,1.90
2012,04,07,05,16,1.90
2012,04,07,05,17,1.90
2012,04,07,05,18,1.90
2012,04,07,05,19,1.80
2012,04,07,05,20,1.80
2012,04,07,05,21,1.70
2012,04,07,05,22,1.70
2012,04,07,05,23,1.70
2012,04,07,05,24,1.70
2012,04,07,05,25,1.70
2012,04,07,05,26,1.70
2012,04,07,05,27,1.70
2012,04,07,05,28,1.70
2012,04,07,05,29,1.60
2012,04,07,05,30,1.50
2012,04,07,05,31,1.40
2012,04,07,05,32,1.40
2012,04,07,05,33,1.40
2012,04,07,05,34,1.40
2012,04,07,05,35,1.30
2012,04,07,05,36,1.30
2012,04,07,05,37,1.30
2012,04,07,05,38,1.30
2012,04,07,05,39,1.30
2012,04,07,05,40,1.30
2012,04,07,05,41,1.30
2012,04,07,05,42,1.40
2012,04,07,05,43,1.40
2012,04,07,05,44,1.40
2012,04,07,05,45,1.40
2012,04,07,05,46,1.40
2012,04,07,05,47,1.40
2012,04,07,05,48,1.40
2012,04,07,05,49,1.40
2012,04,07,05,50,1.40
2012,04,07,05,51,1.40
2012,04,07,05,52,1.40
2012,04,07,05,53,1.50
2012,04,07,05,54,1.50
2012,04,07,05,55,1.60
2012,04,07,05,56,1.60
2012,04,07,05,57,1.70
2012,04,07,05,58,1.70
2012,04,07,05,59,1.80
2012,04,07,06,00,1.80
2012,04,07,06,01,1.80
2012,04,07,06,02,1.80
2012,04,07,06,03,1.80
2012,04,07,06,04,1.80
2012,04,07,06,05,1.80
2012,04,07,06,06,1.90
2012,04,07,06,07,1.90
2012,04,07,06,08,1.90
2012,04,07,06,09,1.90
2012,04,07,06,10,2.00
2012,04,07,06,11,2.00
2012,04,07,06,12,2.00
2012,04,07,06,13,2.00
2012,04,07,06,14,2.00
2012,04,07,06,15,2.00
2012,04,07,06,16,2.00
2012,04,07,06,17,2.00
2012,04,07,06,18,2.00
2012,04,07,06,19,2.00
2012,04,07,06,20,1.90
2012,04,07,06,21,1.90
2012,04,07,06,22,1.90
2012,04,07,06,23,1.90
2012,04,07,06,24,1.90
2012,04,07,06,25,1.80
2012,04,07,06,26,1.80
2012,04,07,06,27,1.80
2012,04,07,06,28,1.80
2012,04,07,06,29,1.70
2012,04,07,06,30,1.70
2012,04,07,06,31,1.70
2012,04,07,06,32,1.70
2012,04,07,06,33,1.70
2012,04,07,06,34,1.60
2012,04,07,06,35,1.60
2012,04,07,06,36,1.60
2012,04,07,06,37,1.60
2012,04,07,06,38,1.70
2012,04,07,06,39,1.70
2012,04,07,06,40,1.70
2012,04,07,06,41,1.70
2012,04,07,06,42,1.80
2012,04,07,06,43,1.80
2012,04,07,06,44,1.80
2012,04,07,06,45,1.80
2012,04,07,06,46,1.80
2012,04,07,06,47,1.80
2012,04,07,06,48,1.70
2012,04,07,06,49,1.70
2012,04,07,06,50,1.60
2012,04,07,06,51,1.60
2012,04,07,06,52,1.60
2012,04,07,06,53,1.60
2012,04,07,06,54,1.60
2012,04,07,06,55,1.60
2012,04,07,06,56,1.60
2012,04,07,06,57,1.70
2012,04,07,06,58,1.70
2012,04,07,06,59,1.70
2012,04,07,07,00,1.70
2012,04,07,07,01,1.70
2012,04,07,07,02,1.70
2012,04,07,07,03,1.70
2012,04,07,07,04,1.70
2012,04,07,07,05,1.70
2012,04,07,07,06,1.70
2012,04,07,07,07,1.70
2012,04,07,07,08,1.70
2012,04,07,07,09,1.80
2012,04,07,07,10,1.80
2012,04,07,07,11,1.80
2012,04,07,07,12,1.80
2012,04,07,07,13,1.80
2012,04,07,07,14,1.90
2012,04,07,07,15,1.90
2012,04,07,07,16,1.90
2012,04,07,07,17,1.80
2012,04,07,07,18,1.80
2012,04,07,07,19,1.90
2012,04,07,07,20,1.90
2012,04,07,07,21,1.90
2012,04,07,07,22,1.90
2012,04,07,07,23,2.00
2012,04,07,07,24,2.00
2012,04,07,07,25,2.10
2012,04,07,07,26,2.10
2012,04,07,07,27,2.10
2012,04,07,07,28,2.20
2012,04,07,07,29,2.20
2012,04,07,07,30,2.20
2012,04,07,07,31,2.30
2012,04,07,07,32,2.30
2012,04,07,07,33,2.30
2012,04,07,07,34,2.40
2012,04,07,07,35,2.40
2012,04,07,07,36,2.50
2012,04,07,07,37,2.50
2012,04,07,07,38,2.60
2012,04,07,07,39,2.70
2012,04,07,07,40,2.70
2012,04,07,07,41,2.80
2012,04,07,07,42,2.90
2012,04,07,07,43,2.90
2012,04,07,07,44,3.00
2012,04,07,07,45,3.10
2012,04,07,07,46,3.20
2012,04,07,07,47,3.20
2012,04,07,07,48,3.30
2012,04,07,07,49,3.30
2012,04,07,07,50,3.40
2012,04,07,07,51,3.40
2012,04,07,07,52,3.50
2012,04,07,07,53,3.60
2012,04,07,07,54,3.60
2012,04,07,07,55,3.60
2012,04,07,07,56,3.70
2012,04,07,07,57,3.70
2012,04,07,07,58,3.80
2012,04,07,07,59,3.80
2012,04,07,08,00,3.80
2012,04,07,08,01,3.90
2012,04,07,08,02,3.90
2012,04,07,08,03,3.90
2012,04,07,08,04,4.00
2012,04,07,08,05,4.00
2012,04,07,08,06,4.00
2012,04,07,08,07,4.00
2012,04,07,08,08,4.10
2012,04,07,08,09,4.10
2012,04,07,08,10,4.10
2012,04,07,08,11,4.10
2012,04,07,08,12,4.10
2012,04,07,08,13,4.10
2012,04,07,08,14,4.10
2012,04,07,08,15,4.20
2012,04,07,08,16,4.20
2012,04,07,08,17,4.20
2012,04,07,08,18,4.30
2012,04,07,08,19,4.30
2012,04,07,08,20,4.40
2012,04,07,08,21,4.40
2012,04,07,08,22,4.50
2012,04,07,08,23,4.50
2012,04,07,08,24,4.50
2012,04,07,08,25,4.60
2012,04,07,08,26,4.60
2012,04,07,08,27,4.70
2012,04,07,08,28,4.70
2012,04,07,08,29,4.70
2012,04,07,08,30,4.70
2012,04,07,08,31,4.70
2012,04,07,08,32,4.80
2012,04,07,08,33,4.80
2012,04,07,08,34,4.80
2012,04,07,08,35,4.80
2012,04,07,08,36,4.90
2012,04,07,08,37,4.90
2012,04,07,08,38,4.90
2012,04,07,08,39,4.90
2012,04,07,08,40,5.00
2012,04,07,08,41,5.00
2012,04,07,08,42,5.00
2012,04,07,08,43,5.10
2012,04,07,08,44,5.10
2012,04,07,08,45,5.10
2012,04,07,08,46,5.10
2012,04,07,08,47,5.10
2012,04,07,08,48,5.10
2012,04,07,08,49,5.10
2012,04,07,08,50,5.10
2012,04,07,08,51,5.00
2012,04,07,08,52,4.90
2012,04,07,08,53,5.00
2012,04,07,08,54,5.00
2012,04,07,08,55,5.10
2012,04,07,08,56,5.10
2012,04,07,08,57,5.20
2012,04,07,08,58,5.30
2012,04,07,08,59,5.30
2012,04,07,09,00,5.20
2012,04,07,09,01,5.20
2012,04,07,09,02,5.20
2012,04,07,09,03,5.20
2012,04,07,09,04,5.10
2012,04,07,09,05,5.20
2012,04,07,09,06,5.20
2012,04,07,09,07,5.30
2012,04,07,09,08,5.30
2012,04,07,09,09,5.30
2012,04,07,09,10,5.30
2012,04,07,09,11,5.30
2012,04,07,09,12,5.40
2012,04,07,09,13,5.40
2012,04,07,09,14,5.40
2012,04,07,09,15,5.50
2012,04,07,09,16,5.60
2012,04,07,09,17,5.60
2012,04,07,09,18,5.70
2012,04,07,09,19,5.70
2012,04,07,09,20,5.80
2012,04,07,09,21,5.80
2012,04,07,09,22,5.90
2012,04,07,09,23,5.90
2012,04,07,09,24,6.00
2012,04,07,09,25,5.90
2012,04,07,09,26,5.90
2012,04,07,09,27,5.90
2012,04,07,09,28,5.90
2012,04,07,09,29,5.80
2012,04,07,09,30,5.80
2012,04,07,09,31,5.80
2012,04,07,09,32,5.80
2012,04,07,09,33,5.80
2012,04,07,09,34,5.80
2012,04,07,09,35,5.90
2012,04,07,09,36,6.00
2012,04,07,09,37,6.10
2012,04,07,09,38,6.20
2012,04,07,09,39,6.30
2012,04,07,09,40,6.30
2012,04,07,09,41,6.30
2012,04,07,09,42,6.30
2012,04,07,09,43,6.40
2012,04,07,09,44,6.40
2012,04,07,09,45,6.40
2012,04,07,09,46,6.40
2012,04,07,09,47,6.40
2012,04,07,09,48,6.40
2012,04,07,09,49,6.40
2012,04,07,09,50,6.40
2012,04,07,09,51,6.40
2012,04,07,09,52,6.40
2012,04,07,09,53,6.50
2012,04,07,09,54,6.50
2012,04,07,09,55,6.60
2012,04,07,09,56,6.60
2012,04,07,09,57,6.70
2012,04,07,09,58,6.70
2012,04,07,09,59,6.60
2012,04,07,10,00,6.60
2012,04,07,10,01,6.60
2012,04,07,10,02,6.60
2012,04,07,10,03,6.60
2012,04,07,10,04,6.60
2012,04,07,10,05,6.60
2012,04,07,10,06,6.60
2012,04,07,10,07,6.50
2012,04,07,10,08,6.60
2012,04,07,10,09,6.60
2012,04,07,10,10,6.60
2012,04,07,10,11,6.70
2012,04,07,10,12,6.70
2012,04,07,10,13,6.60
2012,04,07,10,14,6.60
2012,04,07,10,15,6.60
2012,04,07,10,16,6.60
2012,04,07,10,17,6.70
2012,04,07,10,18,6.60
2012,04,07,10,19,6.70
2012,04,07,10,20,6.70
2012,04,07,10,21,6.70
2012,04,07,10,22,6.80
2012,04,07,10,23,6.80
2012,04,07,10,24,6.80
2012,04,07,10,25,6.90
2012,04,07,10,26,6.90
2012,04,07,10,27,6.90
2012,04,07,10,28,6.90
2012,04,07,10,29,6.90
2012,04,07,10,30,6.90
2012,04,07,10,31,7.00
2012,04,07,10,32,7.00
2012,04,07,10,33,7.10
2012,04,07,10,34,7.20
2012,04,07,10,35,7.20
2012,04,07,10,36,7.30
2012,04,07,10,37,7.40
2012,04,07,10,38,7.40
2012,04,07,10,39,7.50
2012,04,07,10,40,7.40
2012,04,07,10,41,7.30
2012,04,07,10,42,7.20
2012,04,07,10,43,7.10
2012,04,07,10,44,7.00
2012,04,07,10,45,7.00
2012,04,07,10,46,7.00
2012,04,07,10,47,6.90
2012,04,07,10,48,6.90
2012,04,07,10,49,6.90
2012,04,07,10,50,6.90
2012,04,07,10,51,6.90
2012,04,07,10,52,6.80
2012,04,07,10,53,6.90
2012,04,07,10,54,7.00
2012,04,07,10,55,7.00
2012,04,07,10,56,7.10
2012,04,07,10,57,7.20
2012,04,07,10,58,7.20
2012,04,07,10,59,7.20
2012,04,07,11,00,7.20
2012,04,07,11,01,7.30
2012,04,07,11,02,7.40
2012,04,07,11,03,7.60
2012,04,07,11,04,7.70
2012,04,07,11,05,7.70
2012,04,07,11,06,7.80
2012,04,07,11,07,7.90
2012,04,07,11,08,7.80
2012,04,07,11,09,7.80
2012,04,07,11,10,7.80
2012,04,07,11,11,7.70
2012,04,07,11,12,7.60
2012,04,07,11,13,7.60
2012,04,07,11,14,7.60
2012,04,07,11,15,7.80
2012,04,07,11,16,7.90
2012,04,07,11,17,7.90
2012,04,07,11,18,7.90
2012,04,07,11,19,7.90
2012,04,07,11,20,7.90
2012,04,07,11,21,8.00
2012,04,07,11,22,8.10
2012,04,07,11,23,8.10
2012,04,07,11,24,8.10
2012,04,07,11,25,8.00
2012,04,07,11,26,8.00
2012,04,07,11,27,7.90
2012,04,07,11,28,8.00
2012,04,07,11,29,8.00
2012,04,07,11,30,8.00
2012,04,07,11,31,8.00
2012,04,07,11,32,8.00
2012,04,07,11,33,8.00
2012,04,07,11,34,8.00
2012,04,07,11,35,8.10
2012,04,07,11,36,8.10
2012,04,07,11,37,8.10
2012,04,07,11,38,8.10
2012,04,07,11,39,8.10
2012,04,07,11,40,8.10
2012,04,07,11,41,8.00
2012,04,07,11,42,7.90
2012,04,07,11,43,7.90
2012,04,07,11,44,8.00
2012,04,07,11,45,8.20
2012,04,07,11,46,8.30
2012,04,07,11,47,8.30
2012,04,07,11,48,8.40
2012,04,07,11,49,8.40
2012,04,07,11,50,8.40
2012,04,07,11,51,8.40
2012,04,07,11,52,8.40
2012,04,07,11,53,8.40
2012,04,07,11,54,8.40
2012,04,07,11,55,8.50
2012,04,07,11,56,8.50
2012,04,07,11,57,8.60
2012,04,07,11,58,8.70
2012,04,07,11,59,8.70
2012,04,07,12,00,8.80
2012,04,07,12,01,8.80
2012,04,07,12,02,8.80
2012,04,07,12,03,8.70
2012,04,07,12,04,8.70
2012,04,07,12,05,8.60
2012,04,07,12,06,8.60
2012,04,07,12,07,8.60
2012,04,07,12,08,8.60
2012,04,07,12,09,8.70
2012,04,07,12,10,8.70
2012,04,07,12,11,8.70
2012,04,07,12,12,8.60
2012,04,07,12,13,8.60
2012,04,07,12,14,8.70
2012,04,07,12,15,8.60
2012,04,07,12,16,8.50
2012,04,07,12,17,8.50
2012,04,07,12,18,8.50
2012,04,07,12,19,8.60
2012,04,07,12,20,8.50
2012,04,07,12,21,8.50
2012,04,07,12,22,8.50
2012,04,07,12,23,8.60
2012,04,07,12,24,8.60
2012,04,07,12,25,8.70
2012,04,07,12,26,8.70
2012,04,07,12,27,8.70
2012,04,07,12,28,8.70
2012,04,07,12,29,8.70
2012,04,07,12,30,8.70
2012,04,07,12,31,8.60
2012,04,07,12,32,8.50
2012,04,07,12,33,8.50
2012,04,07,12,34,8.60
2012,04,07,12,35,8.60
2012,04,07,12,36,8.60
2012,04,07,12,37,8.60
2012,04,07,12,38,8.70
2012,04,07,12,39,8.70
2012,04,07,12,40,8.70
2012,04,07,12,41,8.70
2012,04,07,12,42,8.70
2012,04,07,12,43,8.80
2012,04,07,12,44,8.90
2012,04,07,12,45,8.90
2012,04,07,12,46,8.90
2012,04,07,12,47,8.80
2012,04,07,12,48,8.80
2012,04,07,12,49,8.80
2012,04,07,12,50,8.90
2012,04,07,12,51,8.90
2012,04,07,12,52,8.90
2012,04,07,12,53,8.90
2012,04,07,12,54,9.00
2012,04,07,12,55,9.10
2012,04,07,12,56,9.20
2012,04,07,12,57,9.20
2012,04,07,12,58,9.30
2012,04,07,12,59,9.30
2012,04,07,13,00,9.30
2012,04,07,13,01,9.20
2012,04,07,13,02,9.10
2012,04,07,13,03,9.10
2012,04,07,13,04,9.20
2012,04,07,13,05,9.20
2012,04,07,13,06,9.20
2012,04,07,13,07,9.30
2012,04,07,13,08,9.20
2012,04,07,13,09,9.20
2012,04,07,13,10,9.20
2012,04,07,13,11,9.20
2012,04,07,13,12,9.20
2012,04,07,13,13,9.20
2012,04,07,13,14,9.30
2012,04,07,13,15,9.30
2012,04,07,13,16,9.40
2012,04,07,13,17,9.30
2012,04,07,13,18,9.20
2012,04,07,13,19,9.00
2012,04,07,13,20,9.00
2012,04,07,13,21,9.00
2012,04,07,13,22,9.10
2012,04,07,13,23,9.10
2012,04,07,13,24,9.10
2012,04,07,13,25,9.10
2012,04,07,13,26,9.10
2012,04,07,13,27,9.10
2012,04,07,13,28,9.20
2012,04,07,13,29,9.30
2012,04,07,13,30,9.40
2012,04,07,13,31,9.40
2012,04,07,13,32,9.50
2012,04,07,13,33,9.50
2012,04,07,13,34,9.60
2012,04,07,13,35,9.60
2012,04,07,13,36,9.60
2012,04,07,13,37,9.50
2012,04,07,13,38,9.50
2012,04,07,13,39,9.60
2012,04,07,13,40,9.60
2012,04,07,13,41,9.60
2012,04,07,13,42,9.60
2012,04,07,13,43,9.60
2012,04,07,13,44,9.70
2012,04,07,13,45,9.80
2012,04,07,13,46,9.80
2012,04,07,13,47,9.70
2012,04,07,13,48,9.60
2012,04,07,13,49,9.60
2012,04,07,13,50,9.70
2012,04,07,13,51,9.80
2012,04,07,13,52,9.90
2012,04,07,13,53,10.00
2012,04,07,13,54,10.00
2012,04,07,13,55,10.00
2012,04,07,13,56,9.90
2012,04,07,13,57,9.90
2012,04,07,13,58,10.00
2012,04,07,13,59,10.10
2012,04,07,14,00,10.00
2012,04,07,14,01,9.90
2012,04,07,14,02,9.90
2012,04,07,14,03,9.90
2012,04,07,14,04,9.80
2012,04,07,14,05,9.80
2012,04,07,14,06,9.80
2012,04,07,14,07,9.80
2012,04,07,14,08,9.80
2012,04,07,14,09,9.90
2012,04,07,14,10,9.90
2012,04,07,14,11,10.00
2012,04,07,14,12,10.10
2012,04,07,14,13,10.10
2012,04,07,14,14,10.10
2012,04,07,14,15,10.10
2012,04,07,14,16,10.20
2012,04,07,14,17,10.20
2012,04,07,14,18,10.30
2012,04,07,14,19,10.30
2012,04,07,14,20,10.30
2012,04,07,14,21,10.30
2012,04,07,14,22,10.20
2012,04,07,14,23,10.10
2012,04,07,14,24,10.10
2012,04,07,14,25,10.10
2012,04,07,14,26,10.10
2012,04,07,14,27,10.20
2012,04,07,14,28,10.20
2012,04,07,14,29,10.30
2012,04,07,14,30,10.20
2012,04,07,14,31,10.10
2012,04,07,14,32,10.00
2012,04,07,14,33,10.10
2012,04,07,14,34,10.00
2012,04,07,14,35,10.00
2012,04,07,14,36,10.00
2012,04,07,14,37,10.10
2012,04,07,14,38,10.20
2012,04,07,14,39,10.30
2012,04,07,14,40,10.30
2012,04,07,14,41,10.20
2012,04,07,14,42,10.20
2012,04,07,14,43,10.20
2012,04,07,14,44,10.20
2012,04,07,14,45,10.20
2012,04,07,14,46,10.20
2012,04,07,14,47,10.20
2012,04,07,14,48,10.20
2012,04,07,14,49,10.30
2012,04,07,14,50,10.30
2012,04,07,14,51,10.30
2012,04,07,14,52,10.20
2012,04,07,14,53,10.20
2012,04,07,14,54,10.20
2012,04,07,14,55,10.20
2012,04,07,14,56,10.20
2012,04,07,14,57,10.30
2012,04,07,14,58,10.30
2012,04,07,14,59,10.30
2012,04,07,15,00,10.30
2012,04,07,15,01,10.30
2012,04,07,15,02,10.30
2012,04,07,15,03,10.20
2012,04,07,15,04,10.30
2012,04,07,15,05,10.30
2012,04,07,15,06,10.30
2012,04,07,15,07,10.30
2012,04,07,15,08,10.40
2012,04,07,15,09,10.50
2012,04,07,15,10,10.60
2012,04,07,15,11,10.60
2012,04,07,15,12,10.70
2012,04,07,15,13,10.80
2012,04,07,15,14,10.80
2012,04,07,15,15,10.80
2012,04,07,15,16,10.90
2012,04,07,15,17,10.80
2012,04,07,15,18,10.80
2012,04,07,15,19,10.80
2012,04,07,15,20,10.70
2012,04,07,15,21,10.70
2012,04,07,15,22,10.80
2012,04,07,15,23,10.80
2012,04,07,15,24,10.80
2012,04,07,15,25,10.80
2012,04,07,15,26,10.90
2012,04,07,15,27,10.90
2012,04,07,15,28,10.90
2012,04,07,15,29,10.90
2012,04,07,15,30,10.80
2012,04,07,15,31,10.90
2012,04,07,15,32,11.00
2012,04,07,15,33,11.10
2012,04,07,15,34,11.20
2012,04,07,15,35,11.30
2012,04,07,15,36,11.30
2012,04,07,15,37,11.30
2012,04,07,15,38,11.20
2012,04,07,15,39,11.20
2012,04,07,15,40,11.30
2012,04,07,15,41,11.30
2012,04,07,15,42,11.30
2012,04,07,15,43,11.30
2012,04,07,15,44,11.30
2012,04,07,15,45,11.30
2012,04,07,15,46,11.30
2012,04,07,15,47,11.40
2012,04,07,15,48,11.40
2012,04,07,15,49,11.50
2012,04,07,15,50,11.50
2012,04,07,15,51,11.50
2012,04,07,15,52,11.60
2012,04,07,15,53,11.60
2012,04,07,15,54,11.70
2012,04,07,15,55,11.70
2012,04,07,15,56,11.70
2012,04,07,15,57,11.70
2012,04,07,15,58,11.70
2012,04,07,15,59,11.70
2012,04,07,16,00,11.80
2012,04,07,16,01,11.90
2012,04,07,16,02,11.90
2012,04,07,16,03,11.90
2012,04,07,16,04,11.90
2012,04,07,16,05,11.90
2012,04,07,16,06,11.90
2012,04,07,16,07,12.00
2012,04,07,16,08,12.10
2012,04,07,16,09,12.20
2012,04,07,16,10,12.20
2012,04,07,16,11,12.30
2012,04,07,16,12,12.30
2012,04,07,16,13,12.30
2012,04,07,16,14,12.30
2012,04,07,16,15,12.40
2012,04,07,16,16,12.40
2012,04,07,16,17,12.40
2012,04,07,16,18,12.30
2012,04,07,16,19,12.20
2012,04,07,16,20,12.20
2012,04,07,16,21,12.20
2012,04,07,16,22,12.20
2012,04,07,16,23,12.10
2012,04,07,16,24,12.10
2012,04,07,16,25,12.10
2012,04,07,16,26,12.10
2012,04,07,16,27,12.20
2012,04,07,16,28,12.20
2012,04,07,16,29,12.20
2012,04,07,16,30,12.20
2012,04,07,16,31,12.20
2012,04,07,16,32,12.20
2012,04,07,16,33,12.20
2012,04,07,16,34,12.20
2012,04,07,16,35,12.20
2012,04,07,16,36,12.20
2012,04,07,16,37,12.20
2012,04,07,16,38,12.20
2012,04,07,16,39,12.20
2012,04,07,16,40,12.10
2012,04,07,16,41,12.20
2012,04,07,16,42,12.20
2012,04,07,16,43,12.20
2012,04,07,16,44,12.30
2012,04,07,16,45,12.30
2012,04,07,16,46,12.30
2012,04,07,16,47,12.30
2012,04,07,16,48,12.30
2012,04,07,16,49,12.30
2012,04,07,16,50,12.30
2012,04,07,16,51,12.30
2012,04,07,16,52,12.20
2012,04,07,16,53,12.20
2012,04,07,16,54,12.20
2012,04,07,16,55,12.20
2012,04,07,16,56,12.20
2012,04,07,16,57,12.20
2012,04,07,16,58,12.20
2012,04,07,16,59,12.20
2012,04,07,17,00,12.20
2012,04,07,17,01,12.20
2012,04,07,17,02,12.20
2012,04,07,17,03,12.20
2012,04,07,17,04,12.10
2012,04,07,17,05,12.10
2012,04,07,17,06,12.00
2012,04,07,17,07,12.00
2012,04,07,17,08,12.00
2012,04,07,17,09,12.10
2012,04,07,17,10,12.00
2012,04,07,17,11,12.00
2012,04,07,17,12,11.90
2012,04,07,17,13,11.90
2012,04,07,17,14,11.90
2012,04,07,17,15,11.90
2012,04,07,17,16,11.90
2012,04,07,17,17,11.90
2012,04,07,17,18,11.90
2012,04,07,17,19,11.90
2012,04,07,17,20,11.90
2012,04,07,17,21,11.90
2012,04,07,17,22,11.90
2012,04,07,17,23,11.90
2012,04,07,17,24,11.90
2012,04,07,17,25,11.90
2012,04,07,17,26,11.90
2012,04,07,17,27,11.90
2012,04,07,17,28,11.90
2012,04,07,17,29,11.90
2012,04,07,17,30,11.90
2012,04,07,17,31,11.90
2012,04,07,17,32,11.90
2012,04,07,17,33,11.80
2012,04,07,17,34,11.80
2012,04,07,17,35,11.80
2012,04,07,17,36,11.80
2012,04,07,17,37,11.90
2012,04,07,17,38,11.90
2012,04,07,17,39,12.00
2012,04,07,17,40,12.00
2012,04,07,17,41,12.00
2012,04,07,17,42,11.90
2012,04,07,17,43,11.90
2012,04,07,17,44,11.90
2012,04,07,17,45,11.90
2012,04,07,17,46,11.90
2012,04,07,17,47,11.90
2012,04,07,17,48,11.90
2012,04,07,17,49,11.90
2012,04,07,17,50,11.80
2012,04,07,17,51,11.80
2012,04,07,17,52,11.80
2012,04,07,17,53,11.80
2012,04,07,17,54,11.80
2012,04,07,17,55,11.80
2012,04,07,17,56,11.80